User: anonymous   Login
Location: Hepcat Sky Observatory
(29.9800°N, 95.6500°W)
Time: 23:53:39
(UTC-05:00)
Language:

ALOS - Orbit

View from above orbital plane
View from above orbital plane
View from above satellite
View from above satellite

Ground track
Ground track

The orbit data is extracted from the following two-line orbital elements,

1 28931U 06002A   15209.55113694  .00000336  00000-0  75915-4 0  9995
2 28931 097.9286 257.2938 0001440 052.5457 307.5875 14.61928022506684
Epoch (UTC): 28 July 2015 13:13:38
Eccentricity: 0.0001440
inclination: 97.9286°
perigee height: 686 km
apogee height: 688 km
right ascension of ascending node: 257.2938°
argument of perigee: 52.5457°
revolutions per day: 14.61928022
mean anomaly at epoch: 307.5875°
orbit number at epoch: 50668

The dashed part of the orbit path shows where the satellite is in the earth's shadow,  

DLR